Home   Weather   Dalian   Past weeks

Flag for China Past Weather in Dalian, Liaoning, China — Yesterday and Last 2 Weeks

Now
28 °F

Clear.


Feels Like: 22 °F
Forecast: 24 / 38 °F
Wind: 6 mph from Northwest

Location: Dalian Airport

Current Time: Jan 24, 2017 at 11:11:12 am

Latest Report: Jan 24, 2017 at 10:30 am


Visibility: 5 mi

Pressure: 30.66 "Hg

Humidity: 51%

Dew Point: 12 °F

Location of DalianLocation

Past Weather in Dalian — Graph

°F

Dalian Temperature Yesterday

Maximum temperature yesterday: 25 °F (at 2:30 pm)
Minimum temperature yesterday: 5 °F (at 5:00 am)
Average temperature yesterday: 17 °F

High & Low Weather Summary for the Past Weeks

 TemperatureHumidityPressure
High41 °F (Jan 11, 12:30 pm)100% (Jan 19, 2:00 pm)30.66 "Hg (Jan 19, 2:00 pm)
Low5 °F (Jan 23, 5:00 am)23% (Jan 16, 6:00 am)30.04 "Hg (Jan 13, 12:30 am)
Average24 °F57%30.39 "Hg
* Reported Jan 9 9:00 am — Jan 24 9:30 am, Dalian, Weather by CustomWeather, © 2017

Note: Actual official high and low records may vary slightly from our data, if they occured in-between our weather recording intervals... More about our weather records

Advertising

Dalian Weather History for the Previous 24 Hours

Scroll right to see more
 ConditionsComfort  
Time TempWeatherWind HumidityBarometerVisibility
9:30 am
Tue, Jan 24
25 °FClear.1 mph54%30.66 "Hg5 mi
9:00 am23 °FClear.1 mph58%30.66 "Hg5 mi
8:30 am19 °FClear.1 mph68%30.66 "Hg2 mi
8:00 am16 °FClear.1 mph67%30.66 "Hg3 mi
7:30 am12 °FClear.1 mph73%30.66 "Hg3 mi
7:00 am9 °FClear.1 mph78%30.66 "Hg3 mi
6:30 am9 °FClear.3 mph72%30.63 "Hg5 mi
6:00 am9 °FClear.1 mph78%30.63 "Hg5 mi
5:30 am9 °FClear.1 mph78%30.63 "Hg10 mi
5:00 am10 °FClear.1 mph79%30.63 "Hg10 mi
4:30 am10 °FClear.3 mph72%30.63 "Hg10 mi
4:00 am10 °FClear.3 mph79%30.63 "Hg10 mi
3:30 am12 °FClear.3 mph73%30.63 "Hg10 mi
3:00 am12 °FClear.3 mph73%30.63 "Hg10 mi
2:30 am16 °FClear.1 mph67%30.63 "Hg10 mi
2:00 am14 °FClear.1 mph67%30.63 "Hg10 mi
1:30 am16 °FClear.1 mph62%30.63 "Hg10 mi
1:00 am18 °FClear.1 mph58%30.63 "Hg10 mi
12:30 am19 °FClear.1 mph58%30.63 "Hg10 mi
12:00 am18 °FClear.No wind62%30.63 "Hg10 mi
11:30 pm
Mon, Jan 23
18 °FClear.1 mph62%30.60 "Hg10 mi
11:00 pm16 °FClear.3 mph67%30.60 "Hg10 mi
10:30 pm18 °FClear.3 mph62%30.60 "Hg10 mi
10:00 pm19 °FClear.1 mph63%30.60 "Hg10 mi
9:30 pm19 °FClear.No wind58%30.60 "Hg10 mi
9:00 pm19 °FClear.1 mph58%30.60 "Hg10 mi
8:30 pm18 °FClear.3 mph62%30.57 "Hg10 mi
8:00 pm19 °FClear.1 mph58%30.57 "Hg10 mi
7:30 pm21 °FPassing clouds.3 mph54%30.57 "HgN/A
7:00 pm21 °FPassing clouds.6 mph54%30.57 "HgN/A
6:30 pm21 °FPassing clouds.3 mph58%30.57 "HgN/A
6:00 pm23 °FPassing clouds.3 mph58%30.57 "HgN/A
5:30 pm21 °FPassing clouds.3 mph63%30.57 "HgN/A
5:00 pm23 °FPassing clouds.3 mph58%30.54 "HgN/A
4:30 pm23 °FPassing clouds.3 mph58%30.54 "HgN/A
4:00 pm25 °FSunny.6 mph54%30.54 "Hg10 mi
3:30 pm25 °FPassing clouds.6 mph54%30.54 "HgN/A
3:00 pm25 °FPassing clouds.6 mph54%30.54 "HgN/A
2:30 pm25 °FPassing clouds.6 mph54%30.57 "HgN/A
2:00 pm23 °FPassing clouds.10 mph58%30.57 "HgN/A
1:30 pm23 °FPassing clouds.8 mph58%30.57 "HgN/A
1:00 pm23 °FPassing clouds.10 mph58%30.57 "HgN/A
12:30 pm23 °FPassing clouds.8 mph54%30.60 "HgN/A
12:00 pm23 °FSunny.8 mph54%30.60 "Hg10 mi
11:30 am23 °FPassing clouds.8 mph54%30.63 "HgN/A
11:00 am23 °FPassing clouds.8 mph54%30.63 "HgN/A
Weather by CustomWeather, © 2017

See weather overviewHow to use our weather pages